COSMOS 586

Satellite information

Favourite Embed

Satellite Type and Status

PAYLOADIN ORBIT

Key statistics

Satellite COSMOS 586 at a glance.

Uptime

19084

Days in orbit

Revolutions

≈ 13.8

Per day

Orbit

LEO

Low Earth Orbit

Inclination

82.9

Latest

Satellite identification and parameters

Extended collection of information and parameters for COSMOS 586.

Object identification

Identified? True

Debris? False

Object name: COSMOS 586

International designator: 1973-065A

Object number (NORAD): 6828

Object ID (CCSDS): 6828

Country: COMMONWEALTH OF INDEPENDENT STATES (CIS)

Current information (Y/N): Y

RCS size: LARGE

Orbital parameters

Period: 104.7 minutes

Inclination: 82.9408 deg

SMA: 7358.531 km

Apoapsis: 1000.854 km

Periapsis: 959.937 km

RAAN: 301.7421 deg

Eccentricy: 0.00278029

Argument of periapsis: 6.0848 deg

Mean anomaly: 103.258 deg

Mean motion: 13.75359137 rev/day

Mean motion (dot): 0.00000107 rev/day2

B* drag term: 0.000095667593 1/REarth

Two-line elements (TLE)

Creation date: Dec. 12, 2025, 10:14 a.m.

Reference frame: TEME

Reference center: EARTH

Epoch: Dec. 12, 2025, 6:42 a.m. UTC

TLE line 0: 0 COSMOS 586

TLE line 1: 1 06828U 73065A 25346.27926059 .00000107 00000-0 95668-4 0 9991

TLE line 2: 2 06828 82.9408 301.7421 0027803 6.0848 103.2580 13.75359137621205

Live tracking on map

Real-time ground track for satellite COSMOS 586.

In-orbit conjunctions

A list of the most updated potential collisions computed for object COSMOS 586.

Target Orbit TCA Probability of collision Miss distance Type
FENGYUN 1C DEB SSO 2025-02-05 12:22:03 0.0001195502 95.0 (m) DEBRIS
FENGYUN 1C DEB SSO 2024-10-10 04:57:49 0.0001428396 662.0 (m) DEBRIS
FENGYUN 1C DEB SSO 2024-09-25 03:15:54 0.001775492 45.0 (m) DEBRIS

Associated space launch

The first soviet navigation system called Tsiklon consisted of Zaliv satellites in low earth orbit.

COSMOS 586 was lifted into orbit during the mission ‘Kosmos-3M | Zaliv 14’, on board a Kosmos-3M space rocket.

The launch took place on Sept. 14, 1973, 12:31 a.m. from 132/2.

For more information about the launch, click the button.

Launch to space Kosmos-3M | Zaliv 14
Kosmos-3M | Zaliv 14

Agency: N/A

Status: Launch Successful

Launch date: Sept. 14, 1973, 12:31 a.m. UTC

Rocket: Kosmos-3M

Launch pad: 132/2

Location: Plesetsk Cosmodrome, Russian Federation

...

Latest news about this satellite

There are no fresh news available about this satellite. Check back as we update our databases every day.


Newsletter sign-up

Weekly statistics, charts and insights to help you stay on top of the space industry.